Location: Dos Palmas
(32.4468°N, 116.8732°W)
Time: 02:25:49
(UTC+00:00)

CZ-2D R/B - Pass Details

Date: 20 June 2021
Orbit: 551 x 639 km, 97.9° (Epoch: 27 July)

Event Time Altitude Azimuth Distance (km) Brightness Sun altitude
Rises 11:38:51 0° 1° (N) 2,827 7.5 -11.7°
Reaches altitude 10° 11:41:10 10° 352° (N) 1,907 6.5 -11.4°
Maximum altitude 11:44:55 34° 287° (WNW) 944 4.2 -10.7°
Enters shadow 11:47:56 14° 226° (SW) 1,623 5.0 -10.2°
